Regional Weather Roundup
Issued by NWS

Home | Current Version | Previous Version | Graphics & Text | Print | Product List | Glossary On
Versions: 1 2 3 4 5 6 7 8 9 10 11 12 13 14 15 16 17 18 19 20 21 22 23 24 25 26 27 28 29 30 31 32 33 34 35 36 37 38 39 40 41 42 43 44 45 46 47 48 49 50
000
ASUS43 KFSD 161510
RWRSD

WEATHER ROUNDUP FOR SOUTH DAKOTA
NATIONAL WEATHER SERVICE SIOUX FALLS SD
1000 AM CDT MON OCT 16 2017

NOTE: "FAIR" INDICATES FEW OR NO CLOUDS BELOW 12,000 FEET WITH NO
SIGNIFICANT WEATHER AND/OR OBSTRUCTIONS TO VISIBILITY.


SDZ001>005-009-010-012>017-161600-
NORTHWEST AND NORTH CENTRAL SOUTH DAKOTA

CITY           SKY/WX    TMP DP  RH WIND       PRES   REMARKS
BUFFALO          N/A     51  30  44 W6        30.01R
FAITH            N/A     46  32  58 SW5       30.08R
MOBRIDGE       SUNNY     48  37  65 S10       30.04F
$$

SDZ012>016-024>037-041>051-057-063-072>074-161600-
SOUTHWEST AND SOUTH CENTRAL SOUTH DAKOTA

CITY           SKY/WX    TMP DP  RH WIND       PRES   REMARKS
RAPID CTY ARPT CLOUDY    50  32  50 CALM      30.13R
PIERRE         SUNNY     43  34  70 CALM      30.10S
CUSTER         CLOUDY    49  26  41 SW5       30.20R
ELLSWORTH AFB  CLOUDY    55  29  37 SW8       30.11R
PHILIP         SUNNY     44  36  73 W6        30.11F
PINE RIDGE     CLOUDY    46  30  53 W8        30.19R
SPEARFISH      FAIR      48  28  46 CALM      30.14R
WINNER         FAIR      52  33  48 SW14      30.13S
$$

SDZ004>011-016>023-039-040-161600-
NORTHEAST SOUTH DAKOTA

CITY           SKY/WX    TMP DP  RH WIND       PRES   REMARKS
ABERDEEN       SUNNY     42  35  76 S8        30.10F
WATERTOWN      SUNNY     46  38  73 S9        30.14F
BROOKINGS      SUNNY     45  37  73 S10       30.20S
SISSETON         N/A     53  35  50 S13       30.09F
$$

SDZ017-020-022-023-036>040-048>070-161600-
SOUTHEAST SOUTH DAKOTA

CITY           SKY/WX    TMP DP  RH WIND       PRES   REMARKS
SIOUX FALLS    SUNNY     50  38  63 SW9       30.24R
HURON          SUNNY     43  36  76 S9        30.15F
CHAMBERLAIN    SUNNY     51  38  62 S8        30.14F
MITCHELL       SUNNY     49  37  63 S9        30.18F
YANKTON        SUNNY     46  38  73 E3        30.23F
$$

ABBREVIATIONS USED IN REMARKS
   TC - TEMPERATURE IN CELSIUS
  WCI - WIND CHILL INDEX
   HX - HEAT INDEX
  VSB - VISIBILITY





USA.gov is the U.S. government's official web portal to all federal, state and local government web resources and services.